sat.trackr.live / text

‹ back to catalog

HULIANWANG DIGUI-73

NORAD 65305 · 2025-187A

PAYLOAD ACTIVE UNKNOWN

§ Identity

Operator
Country
PRC
Launch date
2025-08-25
Launch site
WSC
Launch vehicle
Mass (kg)
RCS (m²)

External: N2YO · Heavens-Above · Gunter

§ Orbital elements

Epoch: 2026-09-20T21:59:07.240128Z

Period
108.33 min
Inclination
50.0042°
Eccentricity
0.0000732
Mean motion
13.29326655 rev/d
Perigee alt
1,148.8 km
Apogee alt
1,149.9 km
Semi-major
7,527.4 km
B*
5.8108e-5
RAAN
222.5547°
Arg perigee
0.2454°
Mean anomaly
359.8418°
Rev number
5,243

§ Raw data

HULIANWANG DIGUI-731 65305U 25187A   26263.91605602 -.00000097  00000+0  58108-4 0  99922 65305  50.0042 222.5547 0000732   0.2454 359.8418 13.29326655 52430

JSON: /api/v1/satellites/65305 · /tle

For live sub-satellite position, see the globe view (requires WebGL).

§ Visibility from observer

Set your observer location to see the next 7 days of passes ≥ 10°. The values pass through the URL so the page stays shareable.

No JS? Fill the form by hand. The geolocation button needs JavaScript.